TimePDT,TemperatureF,Dew PointF,Humidity,Sea Level PressureIn,VisibilityMPH,Wind Direction,Wind SpeedMPH,Gust SpeedMPH,PrecipitationIn,Events,Conditions,WindDirDegrees,DateUTC
12:56 AM,48.0,21.9,36,30.18,10.0,West,5.8,-,N/A,,Clear,260,2012-10-26 07:56:00
1:56 AM,46.9,21.0,36,30.19,10.0,South,10.4,-,N/A,,Clear,180,2012-10-26 08:56:00
2:56 AM,53.1,24.1,32,30.19,10.0,West,3.5,-,N/A,,Clear,260,2012-10-26 09:56:00
3:56 AM,42.1,19.0,40,30.20,10.0,West,3.5,-,N/A,,Clear,270,2012-10-26 10:56:00
4:56 AM,42.1,19.0,40,30.21,10.0,SSW,3.5,-,N/A,,Clear,200,2012-10-26 11:56:00
5:56 AM,45.0,21.9,40,30.22,10.0,WSW,5.8,-,N/A,,Clear,250,2012-10-26 12:56:00
6:56 AM,46.0,25.0,44,30.23,10.0,WSW,3.5,-,N/A,,Clear,240,2012-10-26 13:56:00
7:56 AM,48.0,24.1,39,30.25,10.0,SW,3.5,-,N/A,,Clear,220,2012-10-26 14:56:00
8:56 AM,51.1,21.9,32,30.27,10.0,Calm,Calm,-,N/A,,Clear,0,2012-10-26 15:56:00
9:56 AM,60.1,23.0,24,30.27,10.0,South,3.5,-,N/A,,Clear,190,2012-10-26 16:56:00
10:56 AM,62.1,24.1,23,30.25,10.0,Variable,3.5,-,N/A,,Clear,0,2012-10-26 17:56:00
11:56 AM,66.0,24.1,20,30.23,10.0,Variable,3.5,-,N/A,,Clear,0,2012-10-26 18:56:00
12:56 PM,68.0,23.0,18,30.19,10.0,Variable,4.6,-,N/A,,Clear,0,2012-10-26 19:56:00
1:56 PM,69.1,23.0,18,30.16,10.0,Variable,3.5,-,N/A,,Clear,0,2012-10-26 20:56:00
2:56 PM,69.1,21.9,17,30.12,10.0,Variable,4.6,-,N/A,,Clear,0,2012-10-26 21:56:00
3:56 PM,69.1,21.0,16,30.12,10.0,ESE,4.6,-,N/A,,Clear,110,2012-10-26 22:56:00
4:56 PM,69.1,21.0,16,30.11,10.0,ESE,5.8,-,N/A,,Clear,110,2012-10-26 23:56:00
5:56 PM,66.0,19.9,17,30.11,10.0,ESE,4.6,-,N/A,,Clear,120,2012-10-27 00:56:00
6:56 PM,61.0,19.0,20,30.13,10.0,South,3.5,-,N/A,,Clear,190,2012-10-27 01:56:00
7:56 PM,55.9,18.0,23,30.14,10.0,SSW,3.5,-,N/A,,Clear,200,2012-10-27 02:56:00
8:56 PM,53.1,18.0,25,30.14,10.0,Calm,Calm,-,N/A,,Clear,0,2012-10-27 03:56:00
9:56 PM,48.9,17.1,28,30.14,10.0,SSW,8.1,-,N/A,,Clear,200,2012-10-27 04:56:00
10:56 PM,50.0,19.0,29,30.13,10.0,SSW,8.1,-,N/A,,Clear,200,2012-10-27 05:56:00
11:56 PM,50.0,19.9,31,30.11,10.0,SSW,10.4,-,N/A,,Clear,210,2012-10-27 06:56:00